FENGYUN 1C DEB, 30154

Orbit data source: Space-Track

FENGYUN 1C DEB, 30154 is space debris in SSO originally from a launch on Mon, 10 May 1999 UTC launched from the Taiyaun Space Center, China (TSC). Fengyun 1C debris stems from the Chinese weather satellite Fengyun-1C, which was intentionally destroyed by a Chinese anti-satellite missile in 2007. This event dramatically increased the amount of space debris, with thousands of trackable fragments posing hazards to satellites and human spaceflight. The Fengyun 1C debris cloud has become a focal point in discussions about space sustainability and the need for international regulations to prevent the creation of new debris.

Loading next visibility...
Identifier
30154, 1999-025TK
Orbit
SSO
Country
Flag of CNCN / PRC
Related business
Manufacturer
Unknown
Mission
Spacecraft
Bus & Motor
Unknown
Mass
Unknown
Launch date (UTC)
Icon of a cake. It is the launch day of the satellite!1999-05-10 (27 years ago)
Launch vehicle
Unknown
Launch site
Taiyaun Space Center, China (TSC)
Object type
Payload
Rocket body
Debris
Shape & HBR
Unknown shape, 0.1 m
Radar Cross Section
Small (<0.1 m²)

Expand to show TLE details & history
Last TLE update: 13 hours ago

TLE from 13 hours ago
0 FENGYUN 1C DEB
1 30154U 99025TK  26130.02695669  .00001206  00000-0  93871-3 0  9993
2 30154  98.4324 162.4150 0182561 151.1479 240.6314 13.86532483970396
Epoch: 2026-05-10T00:38Z
TLE epoch observation values (Epoch: 2026-05-10T00:38:49.058Z)
Latitude
29.66867°
Longitude
-79.94467°
Altitude
1,011.849 km
Speed
7.315 km/s
True Right ascension
10h 30m 22s
True Declination
29° 31' 34"
Sunlit
Object was in daylight at epoch
Visualization orbit readout
Latitude
Unknown
Longitude
Unknown
Altitude
Unknown
Speed
Unknown
Apparent Right ascension
Unknown
Apparent Declination
Unknown
Sunlit
N/A
Visualization observer readout
Local Sidereal Time
21:26:40
Azimuth
Unknown
Elevation
Unknown
Doppler factor
Unknown
Orbital elements
Apogee altitude
1,071.561 km
Perigee altitude
804.433 km
Semi-major axis
7,316.134 km
Eccentricity
0.01826
Inclination
98.4324°
RAAN
162.415°
Arg. of periapsis
151.1479°
True anomaly
238.82875°
Mean anomaly
240.6314°
Eccentric anomaly
239.72803°
Mean motion
3.46833 °/min
Orbital period
103.8 mins
BSTAR
0.00093871
Loading maneuver chart data...
Computing Atmospheric mass density...

Documentation

Showing up to 5 results
|